Time,TemperatureF,DewpointF,PressureIn,WindDirection,WindDirectionDegrees,WindSpeedMPH,WindSpeedGustMPH,Humidity,HourlyPrecipIn,Conditions,Clouds,dailyrainin,SoftwareType,DateUTC
2013-08-03 00:00:00,58.8,55.3,30.12,NW,315,2.0,2.0,88,0.00,,,0.00,Wunderground v.1.15,2013-08-03 07:00:00,
2013-08-03 00:05:00,58.5,55.3,30.12,NW,320,2.0,2.0,89,0.00,,,0.00,Wunderground v.1.15,2013-08-03 07:05:00,
2013-08-03 00:10:00,58.3,55.1,30.12,NW,320,1.0,1.0,89,0.00,,,0.00,Wunderground v.1.15,2013-08-03 07:10:00,
2013-08-03 00:15:00,58.1,55.2,30.12,NW,320,1.0,1.0,90,0.00,,,0.00,Wunderground v.1.15,2013-08-03 07:15:00,
2013-08-03 00:20:00,58.0,55.1,30.12,NW,321,1.0,1.0,90,0.00,,,0.00,Wunderground v.1.15,2013-08-03 07:20:00,
2013-08-03 00:25:00,57.9,55.0,30.12,NW,323,1.0,1.0,90,0.00,,,0.00,Wunderground v.1.15,2013-08-03 07:25:00,
2013-08-03 00:30:00,58.1,55.5,30.12,West,271,1.0,3.0,91,0.00,,,0.00,Wunderground v.1.15,2013-08-03 07:30:00,
2013-08-03 00:35:00,58.9,56.0,30.12,West,276,3.0,3.0,90,0.00,,,0.00,Wunderground v.1.15,2013-08-03 07:35:00,
2013-08-03 00:40:00,59.3,55.7,30.12,WNW,294,4.0,6.0,88,0.00,,,0.00,Wunderground v.1.15,2013-08-03 07:40:00,
2013-08-03 00:45:00,59.3,55.7,30.12,WNW,291,4.0,6.0,88,0.00,,,0.00,Wunderground v.1.15,2013-08-03 07:45:00,
2013-08-03 00:50:00,59.4,55.5,30.12,WNW,294,4.0,4.0,87,0.00,,,0.00,Wunderground v.1.15,2013-08-03 07:50:00,
2013-08-03 00:55:00,59.3,55.4,30.12,West,267,3.0,5.0,87,0.00,,,0.00,Wunderground v.1.15,2013-08-03 07:55:00,
2013-08-03 01:00:00,59.4,55.5,30.12,WNW,288,3.0,3.0,87,0.00,,,0.00,Wunderground v.1.15,2013-08-03 08:00:00,
2013-08-03 01:10:00,59.3,55.4,30.12,NW,304,3.0,3.0,87,0.00,,,0.00,Wunderground v.1.15,2013-08-03 08:10:00,
2013-08-03 01:15:00,59.3,55.4,30.12,WNW,302,3.0,5.0,87,0.00,,,0.00,Wunderground v.1.15,2013-08-03 08:15:00,
2013-08-03 01:20:00,59.2,55.3,30.11,West,279,3.0,3.0,87,0.00,,,0.00,Wunderground v.1.15,2013-08-03 08:20:00,
2013-08-03 01:25:00,59.4,55.8,30.11,WNW,287,3.0,3.0,88,0.00,,,0.00,Wunderground v.1.15,2013-08-03 08:25:00,
2013-08-03 01:30:00,59.2,55.3,30.11,WNW,287,2.0,2.0,87,0.00,,,0.00,Wunderground v.1.15,2013-08-03 08:30:00,
2013-08-03 01:35:00,59.1,55.5,30.11,WNW,287,0.0,2.0,88,0.00,,,0.00,Wunderground v.1.15,2013-08-03 08:35:00,
2013-08-03 01:40:00,58.8,55.3,30.11,WNW,288,0.0,0.0,88,0.00,,,0.00,Wunderground v.1.15,2013-08-03 08:40:00,
2013-08-03 01:45:00,58.8,55.6,30.11,West,268,1.0,6.0,89,0.00,,,0.00,Wunderground v.1.15,2013-08-03 08:45:00,
2013-08-03 01:50:00,59.2,56.0,30.11,West,267,3.0,4.0,89,0.00,,,0.00,Wunderground v.1.15,2013-08-03 08:50:00,
2013-08-03 01:55:00,59.4,55.8,30.11,West,265,4.0,5.0,88,0.00,,,0.00,Wunderground v.1.15,2013-08-03 08:55:00,
2013-08-03 02:00:00,59.4,55.8,30.11,WSW,257,4.0,4.0,88,0.00,,,0.00,Wunderground v.1.15,2013-08-03 09:00:00,
2013-08-03 02:10:00,59.5,55.9,30.11,West,265,4.0,4.0,88,0.00,,,0.00,Wunderground v.1.15,2013-08-03 09:10:00,
2013-08-03 02:15:00,59.6,56.4,30.11,West,271,4.0,5.0,89,0.00,,,0.00,Wunderground v.1.15,2013-08-03 09:15:00,
2013-08-03 02:20:00,59.6,56.4,30.11,West,263,4.0,4.0,89,0.00,,,0.00,Wunderground v.1.15,2013-08-03 09:20:00,
2013-08-03 02:25:00,59.5,56.3,30.11,West,261,4.0,4.0,89,0.00,,,0.00,Wunderground v.1.15,2013-08-03 09:25:00,
2013-08-03 02:30:00,59.5,56.3,30.10,West,262,4.0,5.0,89,0.00,,,0.00,Wunderground v.1.15,2013-08-03 09:30:00,
2013-08-03 02:35:00,59.4,55.8,30.11,WNW,286,4.0,5.0,88,0.00,,,0.00,Wunderground v.1.15,2013-08-03 09:35:00,
2013-08-03 02:40:00,59.4,56.2,30.10,NW,309,4.0,4.0,89,0.00,,,0.00,Wunderground v.1.15,2013-08-03 09:40:00,
2013-08-03 02:50:00,59.3,56.1,30.10,WSW,256,3.0,4.0,89,0.00,,,0.00,Wunderground v.1.15,2013-08-03 09:50:00,
2013-08-03 02:55:00,59.4,56.2,30.10,West,277,3.0,4.0,89,0.00,,,0.00,Wunderground v.1.15,2013-08-03 09:55:00,
2013-08-03 03:00:00,59.3,56.1,30.10,West,273,3.0,6.0,89,0.00,,,0.00,Wunderground v.1.15,2013-08-03 10:00:00,
2013-08-03 03:10:00,59.3,56.1,30.10,WSW,257,5.0,5.0,89,0.00,,,0.00,Wunderground v.1.15,2013-08-03 10:10:00,
2013-08-03 03:15:00,59.3,56.1,30.10,West,261,5.0,5.0,89,0.00,,,0.00,Wunderground v.1.15,2013-08-03 10:15:00,
2013-08-03 03:25:00,59.3,56.1,30.10,WNW,292,3.0,4.0,89,0.00,,,0.00,Wunderground v.1.15,2013-08-03 10:25:00,
2013-08-03 03:30:00,59.3,56.1,30.10,West,275,3.0,5.0,89,0.00,,,0.00,Wunderground v.1.15,2013-08-03 10:30:00,
2013-08-03 03:35:00,59.3,55.7,30.10,WSW,258,4.0,5.0,88,0.00,,,0.00,Wunderground v.1.15,2013-08-03 10:35:00,
2013-08-03 03:40:00,59.3,56.1,30.10,WSW,258,4.0,4.0,89,0.00,,,0.00,Wunderground v.1.15,2013-08-03 10:40:00,
2013-08-03 03:45:00,59.3,55.7,30.10,West,263,3.0,4.0,88,0.00,,,0.00,Wunderground v.1.15,2013-08-03 10:45:00,
2013-08-03 03:50:00,59.3,55.7,30.10,West,276,3.0,3.0,88,0.00,,,0.00,Wunderground v.1.15,2013-08-03 10:50:00,
2013-08-03 03:55:00,59.2,55.6,30.10,WNW,292,2.0,3.0,88,0.00,,,0.00,Wunderground v.1.15,2013-08-03 10:55:00,
2013-08-03 04:00:00,58.9,55.7,30.10,WNW,300,1.0,1.0,89,0.00,,,0.00,Wunderground v.1.15,2013-08-03 11:00:00,
2013-08-03 04:05:00,58.8,55.6,30.10,WNW,300,1.0,1.0,89,0.00,,,0.00,Wunderground v.1.15,2013-08-03 11:05:00,
2013-08-03 04:10:00,58.7,55.5,30.10,WNW,300,1.0,1.0,89,0.00,,,0.00,Wunderground v.1.15,2013-08-03 11:10:00,
2013-08-03 04:15:00,58.6,55.7,30.10,WNW,288,1.0,3.0,90,0.00,,,0.00,Wunderground v.1.15,2013-08-03 11:15:00,
2013-08-03 04:20:00,58.8,55.6,30.10,West,276,2.0,2.0,89,0.00,,,0.00,Wunderground v.1.15,2013-08-03 11:20:00,
2013-08-03 04:25:00,59.0,55.8,30.10,West,267,2.0,4.0,89,0.00,,,0.00,Wunderground v.1.15,2013-08-03 11:25:00,
2013-08-03 04:30:00,59.1,55.9,30.10,WNW,287,3.0,5.0,89,0.00,,,0.00,Wunderground v.1.15,2013-08-03 11:30:00,
2013-08-03 04:35:00,59.2,56.0,30.10,West,266,3.0,5.0,89,0.00,,,0.00,Wunderground v.1.15,2013-08-03 11:35:00,
2013-08-03 04:40:00,59.2,56.0,30.10,WNW,289,3.0,3.0,89,0.00,,,0.00,Wunderground v.1.15,2013-08-03 11:40:00,
2013-08-03 04:45:00,59.1,55.5,30.10,WNW,289,4.0,4.0,88,0.00,,,0.00,Wunderground v.1.15,2013-08-03 11:45:00,
2013-08-03 04:50:00,59.1,55.5,30.10,WNW,303,3.0,3.0,88,0.00,,,0.00,Wunderground v.1.15,2013-08-03 11:50:00,
2013-08-03 04:55:00,58.9,55.7,30.10,WNW,297,2.0,6.0,89,0.00,,,0.00,Wunderground v.1.15,2013-08-03 11:55:00,
2013-08-03 05:00:00,58.9,55.7,30.10,West,270,2.0,4.0,89,0.00,,,0.00,Wunderground v.1.15,2013-08-03 12:00:00,
2013-08-03 05:05:00,59.1,56.2,30.10,WNW,290,3.0,4.0,90,0.00,,,0.00,Wunderground v.1.15,2013-08-03 12:05:00,
2013-08-03 05:10:00,59.1,55.9,30.10,West,271,3.0,3.0,89,0.00,,,0.00,Wunderground v.1.15,2013-08-03 12:10:00,
2013-08-03 05:15:00,59.2,56.0,30.10,West,273,4.0,4.0,89,0.00,,,0.00,Wunderground v.1.15,2013-08-03 12:15:00,
2013-08-03 05:20:00,59.2,56.0,30.10,WNW,294,4.0,4.0,89,0.00,,,0.00,Wunderground v.1.15,2013-08-03 12:20:00,
2013-08-03 05:24:00,59.1,55.9,30.10,WNW,295,3.0,4.0,89,0.00,,,0.00,Wunderground v.1.15,2013-08-03 12:24:00,
2013-08-03 05:30:00,58.9,55.7,30.10,WNW,298,2.0,2.0,89,0.00,,,0.00,Wunderground v.1.15,2013-08-03 12:30:00,
2013-08-03 05:35:00,58.7,55.5,30.10,WNW,298,1.0,2.0,89,0.00,,,0.00,Wunderground v.1.15,2013-08-03 12:35:00,
2013-08-03 05:40:00,58.7,55.5,30.10,WNW,298,1.0,1.0,89,0.00,,,0.00,Wunderground v.1.15,2013-08-03 12:40:00,
2013-08-03 05:45:00,58.6,55.4,30.10,WNW,298,1.0,1.0,89,0.00,,,0.00,Wunderground v.1.15,2013-08-03 12:45:00,
2013-08-03 05:50:00,58.5,55.6,30.10,WNW,298,0.0,0.0,90,0.00,,,0.00,Wunderground v.1.15,2013-08-03 12:50:00,
2013-08-03 06:00:00,58.3,55.4,30.10,NW,306,1.0,1.0,90,0.00,,,0.00,Wunderground v.1.15,2013-08-03 13:00:00,
2013-08-03 06:05:00,58.2,55.3,30.10,NW,306,0.0,1.0,90,0.00,,,0.00,Wunderground v.1.15,2013-08-03 13:05:00,
2013-08-03 06:10:00,58.2,55.3,30.11,NW,314,1.0,1.0,90,0.00,,,0.00,Wunderground v.1.15,2013-08-03 13:10:00,
2013-08-03 06:15:00,58.1,55.5,30.11,NW,314,1.0,1.0,91,0.00,,,0.00,Wunderground v.1.15,2013-08-03 13:15:00,
2013-08-03 06:20:00,58.1,55.5,30.11,NW,314,0.0,0.0,91,0.00,,,0.00,Wunderground v.1.15,2013-08-03 13:20:00,
2013-08-03 06:25:00,58.1,55.5,30.11,NW,314,0.0,0.0,91,0.00,,,0.00,Wunderground v.1.15,2013-08-03 13:25:00,
2013-08-03 06:30:00,58.1,55.5,30.11,NW,314,0.0,0.0,91,0.00,,,0.00,Wunderground v.1.15,2013-08-03 13:30:00,
2013-08-03 06:35:00,58.1,55.5,30.11,NW,314,0.0,0.0,91,0.00,,,0.00,Wunderground v.1.15,2013-08-03 13:35:00,
2013-08-03 06:40:00,58.1,55.5,30.11,NW,314,0.0,0.0,91,0.00,,,0.00,Wunderground v.1.15,2013-08-03 13:40:00,
2013-08-03 06:45:00,58.1,55.5,30.11,NW,314,0.0,1.0,91,0.00,,,0.00,Wunderground v.1.15,2013-08-03 13:45:00,
2013-08-03 06:50:00,58.1,55.5,30.11,NW,314,0.0,0.0,91,0.00,,,0.00,Wunderground v.1.15,2013-08-03 13:50:00,
2013-08-03 06:55:00,58.2,55.6,30.12,NW,321,0.0,1.0,91,0.00,,,0.00,Wunderground v.1.15,2013-08-03 13:55:00,
2013-08-03 07:00:00,58.2,55.6,30.12,NW,321,0.0,0.0,91,0.00,,,0.00,Wunderground v.1.15,2013-08-03 14:00:00,
2013-08-03 07:05:00,58.2,55.6,30.12,NW,321,0.0,0.0,91,0.00,,,0.00,Wunderground v.1.15,2013-08-03 14:05:00,
2013-08-03 07:10:00,58.2,55.6,30.12,NW,321,0.0,1.0,91,0.00,,,0.00,Wunderground v.1.15,2013-08-03 14:10:00,
2013-08-03 07:15:00,58.3,55.7,30.12,West,280,2.0,2.0,91,0.00,,,0.00,Wunderground v.1.15,2013-08-03 14:15:00,
2013-08-03 07:19:00,58.6,56.0,30.12,WNW,288,3.0,3.0,91,0.00,,,0.00,Wunderground v.1.15,2013-08-03 14:19:00,
2013-08-03 07:25:00,58.8,55.9,30.12,WNW,288,2.0,3.0,90,0.00,,,0.00,Wunderground v.1.15,2013-08-03 14:25:00,
2013-08-03 07:30:00,58.9,55.7,30.12,West,279,3.0,3.0,89,0.00,,,0.00,Wunderground v.1.15,2013-08-03 14:30:00,
2013-08-03 07:35:00,58.9,55.7,30.12,West,279,3.0,3.0,89,0.00,,,0.00,Wunderground v.1.15,2013-08-03 14:35:00,
2013-08-03 07:40:00,58.9,55.4,30.12,West,272,3.0,3.0,88,0.00,,,0.00,Wunderground v.1.15,2013-08-03 14:40:00,
2013-08-03 07:45:00,59.1,55.5,30.12,West,273,2.0,3.0,88,0.00,,,0.00,Wunderground v.1.15,2013-08-03 14:45:00,
2013-08-03 07:50:00,59.2,56.0,30.12,West,273,1.0,1.0,89,0.00,,,0.00,Wunderground v.1.15,2013-08-03 14:50:00,
2013-08-03 07:55:00,59.2,56.0,30.12,WNW,296,1.0,1.0,89,0.00,,,0.00,Wunderground v.1.15,2013-08-03 14:55:00,
2013-08-03 08:00:00,59.1,55.9,30.12,WNW,296,1.0,2.0,89,0.00,,,0.00,Wunderground v.1.15,2013-08-03 15:00:00,
2013-08-03 08:05:00,59.2,56.0,30.12,NW,305,1.0,2.0,89,0.00,,,0.00,Wunderground v.1.15,2013-08-03 15:05:00,
2013-08-03 08:10:00,59.2,56.0,30.12,NW,311,0.0,0.0,89,0.00,,,0.00,Wunderground v.1.15,2013-08-03 15:10:00,
2013-08-03 08:15:00,59.2,55.6,30.12,NW,311,1.0,1.0,88,0.00,,,0.00,Wunderground v.1.15,2013-08-03 15:15:00,
2013-08-03 08:19:00,59.3,55.7,30.12,NW,311,0.0,0.0,88,0.00,,,0.00,Wunderground v.1.15,2013-08-03 15:19:00,
2013-08-03 08:25:00,59.3,55.7,30.12,NW,311,0.0,0.0,88,0.00,,,0.00,Wunderground v.1.15,2013-08-03 15:25:00,
2013-08-03 08:30:00,59.3,55.7,30.12,NW,311,0.0,1.0,88,0.00,,,0.00,Wunderground v.1.15,2013-08-03 15:30:00,
2013-08-03 08:35:00,59.3,55.7,30.12,NW,311,0.0,1.0,88,0.00,,,0.00,Wunderground v.1.15,2013-08-03 15:35:00,
2013-08-03 08:40:00,59.3,55.7,30.12,NW,311,0.0,0.0,88,0.00,,,0.00,Wunderground v.1.15,2013-08-03 15:40:00,
2013-08-03 08:44:00,59.4,55.8,30.12,NW,311,0.0,0.0,88,0.00,,,0.00,Wunderground v.1.15,2013-08-03 15:44:00,
2013-08-03 08:50:00,59.7,56.1,30.12,NW,311,0.0,0.0,88,0.00,,,0.00,Wunderground v.1.15,2013-08-03 15:50:00,
2013-08-03 08:55:00,59.7,56.1,30.12,West,276,1.0,2.0,88,0.00,,,0.00,Wunderground v.1.15,2013-08-03 15:55:00,
2013-08-03 09:00:00,59.7,55.8,30.12,West,276,2.0,2.0,87,0.00,,,0.00,Wunderground v.1.15,2013-08-03 16:00:00,
2013-08-03 09:05:00,59.9,56.3,30.12,WNW,286,1.0,2.0,88,0.00,,,0.00,Wunderground v.1.15,2013-08-03 16:05:00,
2013-08-03 09:10:00,60.0,56.1,30.12,WNW,295,1.0,4.0,87,0.00,,,0.00,Wunderground v.1.15,2013-08-03 16:10:00,
2013-08-03 09:14:00,60.2,56.3,30.12,WNW,295,2.0,4.0,87,0.00,,,0.00,Wunderground v.1.15,2013-08-03 16:14:00,
2013-08-03 09:20:00,60.2,55.7,30.12,West,272,2.0,2.0,85,0.00,,,0.00,Wunderground v.1.15,2013-08-03 16:20:00,
2013-08-03 09:25:00,60.2,55.7,30.12,West,271,2.0,2.0,85,0.00,,,0.00,Wunderground v.1.15,2013-08-03 16:25:00,
2013-08-03 09:30:00,60.3,55.8,30.12,West,271,1.0,1.0,85,0.00,,,0.00,Wunderground v.1.15,2013-08-03 16:30:00,
2013-08-03 09:35:00,60.4,55.9,30.12,West,279,1.0,2.0,85,0.00,,,0.00,Wunderground v.1.15,2013-08-03 16:35:00,
2013-08-03 09:40:00,60.5,55.6,30.12,West,279,2.0,2.0,84,0.00,,,0.00,Wunderground v.1.15,2013-08-03 16:40:00,
2013-08-03 09:45:00,60.6,55.7,30.11,West,274,2.0,3.0,84,0.00,,,0.00,Wunderground v.1.15,2013-08-03 16:45:00,
2013-08-03 09:50:00,60.7,55.5,30.11,West,269,2.0,3.0,83,0.00,,,0.00,Wunderground v.1.15,2013-08-03 16:50:00,
2013-08-03 09:55:00,60.8,55.6,30.11,West,267,3.0,3.0,83,0.00,,,0.00,Wunderground v.1.15,2013-08-03 16:55:00,
2013-08-03 10:00:00,61.0,55.8,30.11,West,267,2.0,2.0,83,0.00,,,0.00,Wunderground v.1.15,2013-08-03 17:00:00,
2013-08-03 10:05:00,61.1,55.9,30.11,West,267,2.0,2.0,83,0.00,,,0.00,Wunderground v.1.15,2013-08-03 17:05:00,
2013-08-03 10:10:00,61.1,55.6,30.11,West,262,2.0,2.0,82,0.00,,,0.00,Wunderground v.1.15,2013-08-03 17:10:00,
2013-08-03 10:15:00,61.2,55.7,30.11,West,262,2.0,2.0,82,0.00,,,0.00,Wunderground v.1.15,2013-08-03 17:15:00,
2013-08-03 10:20:00,61.4,56.2,30.11,West,262,1.0,1.0,83,0.00,,,0.00,Wunderground v.1.15,2013-08-03 17:20:00,
2013-08-03 10:24:00,61.7,56.1,30.11,West,262,0.0,1.0,82,0.00,,,0.00,Wunderground v.1.15,2013-08-03 17:24:00,
2013-08-03 10:30:00,61.9,56.0,30.11,West,262,0.0,0.0,81,0.00,,,0.00,Wunderground v.1.15,2013-08-03 17:30:00,
2013-08-03 10:35:00,62.1,56.2,30.11,West,262,0.0,0.0,81,0.00,,,0.00,Wunderground v.1.15,2013-08-03 17:35:00,
2013-08-03 10:40:00,62.4,56.5,30.11,West,262,0.0,0.0,81,0.00,,,0.00,Wunderground v.1.15,2013-08-03 17:40:00,
2013-08-03 10:45:00,62.7,56.4,30.11,West,262,0.0,1.0,80,0.00,,,0.00,Wunderground v.1.15,2013-08-03 17:45:00,
2013-08-03 10:50:00,63.0,56.7,30.11,West,262,0.0,0.0,80,0.00,,,0.00,Wunderground v.1.15,2013-08-03 17:50:00,
2013-08-03 10:55:00,63.2,56.6,30.11,West,262,0.0,0.0,79,0.00,,,0.00,Wunderground v.1.15,2013-08-03 17:55:00,
2013-08-03 11:00:00,63.4,56.8,30.11,West,262,0.0,0.0,79,0.00,,,0.00,Wunderground v.1.15,2013-08-03 18:00:00,
2013-08-03 11:05:00,63.4,56.4,30.11,West,262,0.0,0.0,78,0.00,,,0.00,Wunderground v.1.15,2013-08-03 18:05:00,
2013-08-03 11:10:00,63.6,56.6,30.11,West,262,0.0,0.0,78,0.00,,,0.00,Wunderground v.1.15,2013-08-03 18:10:00,
2013-08-03 11:15:00,63.7,56.4,30.11,West,262,0.0,0.0,77,0.00,,,0.00,Wunderground v.1.15,2013-08-03 18:15:00,
2013-08-03 11:20:00,63.8,56.8,30.11,West,262,0.0,2.0,78,0.00,,,0.00,Wunderground v.1.15,2013-08-03 18:20:00,
2013-08-03 11:25:00,63.6,56.3,30.11,West,262,1.0,2.0,77,0.00,,,0.00,Wunderground v.1.15,2013-08-03 18:25:00,
2013-08-03 11:30:00,63.5,56.2,30.11,West,262,1.0,1.0,77,0.00,,,0.00,Wunderground v.1.15,2013-08-03 18:30:00,
2013-08-03 11:35:00,63.6,56.3,30.11,West,262,0.0,1.0,77,0.00,,,0.00,Wunderground v.1.15,2013-08-03 18:35:00,
2013-08-03 11:39:00,63.9,56.5,30.11,West,262,0.0,0.0,77,0.00,,,0.00,Wunderground v.1.15,2013-08-03 18:39:00,
2013-08-03 11:45:00,64.1,56.7,30.11,West,262,0.0,0.0,77,0.00,,,0.00,Wunderground v.1.15,2013-08-03 18:45:00,
2013-08-03 11:55:00,64.5,57.1,30.11,West,262,1.0,1.0,77,0.00,,,0.00,Wunderground v.1.15,2013-08-03 18:55:00,
2013-08-03 12:00:00,64.6,57.2,30.11,West,262,1.0,1.0,77,0.00,,,0.00,Wunderground v.1.15,2013-08-03 19:00:00,
2013-08-03 12:05:00,64.7,57.0,30.11,West,262,0.0,1.0,76,0.00,,,0.00,Wunderground v.1.15,2013-08-03 19:05:00,
2013-08-03 12:10:00,64.9,57.2,30.10,West,262,0.0,1.0,76,0.00,,,0.00,Wunderground v.1.15,2013-08-03 19:10:00,
2013-08-03 12:15:00,64.9,56.8,30.10,West,262,1.0,1.0,75,0.00,,,0.00,Wunderground v.1.15,2013-08-03 19:15:00,
2013-08-03 12:20:00,64.9,57.2,30.10,WSW,254,1.0,1.0,76,0.00,,,0.00,Wunderground v.1.15,2013-08-03 19:20:00,
2013-08-03 12:25:00,65.0,57.2,30.10,WSW,254,1.0,1.0,76,0.00,,,0.00,Wunderground v.1.15,2013-08-03 19:25:00,
2013-08-03 12:30:00,65.2,57.4,30.10,WSW,254,1.0,1.0,76,0.00,,,0.00,Wunderground v.1.15,2013-08-03 19:30:00,
2013-08-03 12:35:00,65.4,57.3,30.10,WSW,254,0.0,1.0,75,0.00,,,0.00,Wunderground v.1.15,2013-08-03 19:35:00,
2013-08-03 12:45:00,65.9,57.7,30.10,WSW,252,0.0,1.0,75,0.00,,,0.00,Wunderground v.1.15,2013-08-03 19:45:00,
2013-08-03 12:50:00,66.6,58.1,30.10,WSW,252,0.0,0.0,74,0.00,,,0.00,Wunderground v.1.15,2013-08-03 19:50:00,
2013-08-03 13:00:00,66.3,57.8,30.09,WSW,252,1.0,1.0,74,0.00,,,0.00,Wunderground v.1.15,2013-08-03 20:00:00,
2013-08-03 13:05:00,66.3,57.8,30.09,WSW,252,0.0,1.0,74,0.00,,,0.00,Wunderground v.1.15,2013-08-03 20:05:00,
2013-08-03 13:10:00,66.5,58.0,30.09,WSW,252,0.0,1.0,74,0.00,,,0.00,Wunderground v.1.15,2013-08-03 20:10:00,
2013-08-03 13:15:00,66.5,58.0,30.09,WSW,252,1.0,1.0,74,0.00,,,0.00,Wunderground v.1.15,2013-08-03 20:15:00,
2013-08-03 13:25:00,66.5,58.0,30.09,West,264,1.0,1.0,74,0.00,,,0.00,Wunderground v.1.15,2013-08-03 20:25:00,
2013-08-03 13:29:00,66.8,58.2,30.09,West,264,1.0,1.0,74,0.00,,,0.00,Wunderground v.1.15,2013-08-03 20:29:00,
2013-08-03 13:35:00,67.0,58.1,30.09,West,269,1.0,3.0,73,0.00,,,0.00,Wunderground v.1.15,2013-08-03 20:35:00,
2013-08-03 13:40:00,67.0,59.2,30.09,West,271,3.0,6.0,76,0.00,,,0.00,Wunderground v.1.15,2013-08-03 20:40:00,
2013-08-03 13:45:00,67.0,58.4,30.09,West,262,3.0,6.0,74,0.00,,,0.00,Wunderground v.1.15,2013-08-03 20:45:00,
2013-08-03 13:50:00,67.3,58.7,30.09,WSW,254,3.0,3.0,74,0.00,,,0.00,Wunderground v.1.15,2013-08-03 20:50:00,
2013-08-03 13:55:00,67.6,59.0,30.09,West,267,2.0,6.0,74,0.00,,,0.00,Wunderground v.1.15,2013-08-03 20:55:00,
2013-08-03 14:00:00,67.5,58.9,30.09,West,266,3.0,3.0,74,0.00,,,0.00,Wunderground v.1.15,2013-08-03 21:00:00,
2013-08-03 14:05:00,67.7,59.5,30.09,WNW,302,4.0,4.0,75,0.00,,,0.00,Wunderground v.1.15,2013-08-03 21:05:00,
2013-08-03 14:10:00,68.6,60.0,30.09,WSW,252,2.0,2.0,74,0.00,,,0.00,Wunderground v.1.15,2013-08-03 21:10:00,
2013-08-03 14:15:00,68.8,59.4,30.09,West,275,2.0,4.0,72,0.00,,,0.00,Wunderground v.1.15,2013-08-03 21:15:00,
2013-08-03 14:20:00,68.6,59.2,30.09,West,271,3.0,5.0,72,0.00,,,0.00,Wunderground v.1.15,2013-08-03 21:20:00,
2013-08-03 14:25:00,68.7,59.7,30.09,WNW,294,4.0,5.0,73,0.00,,,0.00,Wunderground v.1.15,2013-08-03 21:25:00,
2013-08-03 14:29:00,69.8,60.0,30.09,NNW,348,4.0,4.0,71,0.00,,,0.00,Wunderground v.1.15,2013-08-03 21:29:00,
2013-08-03 14:35:00,69.7,59.9,30.09,WNW,285,4.0,4.0,71,0.00,,,0.00,Wunderground v.1.15,2013-08-03 21:35:00,
2013-08-03 14:40:00,70.1,60.7,30.08,NNW,344,4.0,4.0,72,0.00,,,0.00,Wunderground v.1.15,2013-08-03 21:40:00,
2013-08-03 14:45:00,70.5,60.6,30.08,WNW,303,4.0,4.0,71,0.00,,,0.00,Wunderground v.1.15,2013-08-03 21:45:00,
2013-08-03 14:50:00,70.6,59.9,30.08,NW,304,4.0,4.0,69,0.00,,,0.00,Wunderground v.1.15,2013-08-03 21:50:00,
2013-08-03 14:55:00,70.8,60.5,30.08,NW,315,4.0,4.0,70,0.00,,,0.00,Wunderground v.1.15,2013-08-03 21:55:00,
2013-08-03 15:00:00,70.9,60.2,30.08,NNW,338,4.0,5.0,69,0.00,,,0.00,Wunderground v.1.15,2013-08-03 22:00:00,
2013-08-03 15:05:00,70.1,59.9,30.08,WNW,290,5.0,7.0,70,0.00,,,0.00,Wunderground v.1.15,2013-08-03 22:05:00,
2013-08-03 15:10:00,69.9,60.1,30.08,WNW,288,5.0,5.0,71,0.00,,,0.00,Wunderground v.1.15,2013-08-03 22:10:00,
2013-08-03 15:15:00,70.4,60.9,30.07,NNE,23,4.0,5.0,72,0.00,,,0.00,Wunderground v.1.15,2013-08-03 22:15:00,
2013-08-03 15:20:00,71.0,61.1,30.08,NNW,330,3.0,4.0,71,0.00,,,0.00,Wunderground v.1.15,2013-08-03 22:20:00,
2013-08-03 15:25:00,71.6,60.9,30.07,NW,318,3.0,4.0,69,0.00,,,0.00,Wunderground v.1.15,2013-08-03 22:25:00,
2013-08-03 15:30:00,71.6,60.5,30.07,NNW,334,4.0,4.0,68,0.00,,,0.00,Wunderground v.1.15,2013-08-03 22:30:00,
2013-08-03 15:34:00,71.6,60.5,30.07,NNW,338,4.0,5.0,68,0.00,,,0.00,Wunderground v.1.15,2013-08-03 22:34:00,
2013-08-03 15:40:00,71.7,61.0,30.07,NW,304,3.0,3.0,69,0.00,,,0.00,Wunderground v.1.15,2013-08-03 22:40:00,
2013-08-03 15:45:00,71.5,60.4,30.07,North,350,3.0,4.0,68,0.00,,,0.00,Wunderground v.1.15,2013-08-03 22:45:00,
2013-08-03 15:50:00,71.7,61.4,30.06,North,351,4.0,6.0,70,0.00,,,0.00,Wunderground v.1.15,2013-08-03 22:50:00,
2013-08-03 15:55:00,71.7,61.0,30.06,WNW,296,4.0,6.0,69,0.00,,,0.00,Wunderground v.1.15,2013-08-03 22:55:00,
2013-08-03 16:00:00,71.4,60.3,30.06,NW,322,5.0,5.0,68,0.00,,,0.00,Wunderground v.1.15,2013-08-03 23:00:00,
2013-08-03 16:05:00,71.7,61.4,30.06,NNW,336,4.0,6.0,70,0.00,,,0.00,Wunderground v.1.15,2013-08-03 23:05:00,
2013-08-03 16:10:00,72.2,61.5,30.06,North,360,3.0,4.0,69,0.00,,,0.00,Wunderground v.1.15,2013-08-03 23:10:00,
2013-08-03 16:15:00,72.2,61.0,30.06,NNW,333,4.0,6.0,68,0.00,,,0.00,Wunderground v.1.15,2013-08-03 23:15:00,
2013-08-03 16:24:00,72.4,61.2,30.05,WNW,296,4.0,5.0,68,0.00,,,0.00,Wunderground v.1.15,2013-08-03 23:24:00,
2013-08-03 16:30:00,72.4,61.7,30.05,NNW,344,4.0,4.0,69,0.00,,,0.00,Wunderground v.1.15,2013-08-03 23:30:00,
2013-08-03 16:35:00,72.6,61.8,30.05,NW,305,4.0,4.0,69,0.00,,,0.00,Wunderground v.1.15,2013-08-03 23:35:00,
2013-08-03 16:39:00,72.7,61.1,30.05,WNW,288,3.0,5.0,67,0.00,,,0.00,Wunderground v.1.15,2013-08-03 23:39:00,
2013-08-03 16:45:00,72.6,61.4,30.05,WNW,302,4.0,5.0,68,0.00,,,0.00,Wunderground v.1.15,2013-08-03 23:45:00,
2013-08-03 16:50:00,72.4,61.2,30.05,NW,304,4.0,4.0,68,0.00,,,0.00,Wunderground v.1.15,2013-08-03 23:50:00,
2013-08-03 16:55:00,72.2,61.0,30.04,WNW,290,4.0,6.0,68,0.00,,,0.00,Wunderground v.1.15,2013-08-03 23:55:00,
2013-08-03 17:00:00,72.2,61.5,30.04,WNW,295,5.0,5.0,69,0.00,,,0.00,Wunderground v.1.15,2013-08-04 00:00:00,
2013-08-03 17:05:00,72.3,62.0,30.04,WNW,290,5.0,5.0,70,0.00,,,0.00,Wunderground v.1.15,2013-08-04 00:05:00,
2013-08-03 17:10:00,71.9,61.2,30.04,West,279,5.0,5.0,69,0.00,,,0.00,Wunderground v.1.15,2013-08-04 00:10:00,
2013-08-03 17:15:00,71.5,61.2,30.04,WNW,286,5.0,5.0,70,0.00,,,0.00,Wunderground v.1.15,2013-08-04 00:15:00,
2013-08-03 17:20:00,71.6,61.3,30.03,NW,308,4.0,8.0,70,0.00,,,0.00,Wunderground v.1.15,2013-08-04 00:20:00,
2013-08-03 17:25:00,71.9,62.0,30.03,WNW,286,4.0,8.0,71,0.00,,,0.00,Wunderground v.1.15,2013-08-04 00:25:00,
2013-08-03 17:30:00,71.8,61.5,30.03,NW,321,4.0,5.0,70,0.00,,,0.00,Wunderground v.1.15,2013-08-04 00:30:00,
2013-08-03 17:40:00,72.6,62.3,30.03,NW,308,4.0,4.0,70,0.00,,,0.00,Wunderground v.1.15,2013-08-04 00:40:00,
2013-08-03 17:45:00,73.0,61.8,30.03,NW,318,4.0,6.0,68,0.00,,,0.00,Wunderground v.1.15,2013-08-04 00:45:00,
2013-08-03 17:50:00,73.2,61.6,30.03,NNW,331,4.0,5.0,67,0.00,,,0.00,Wunderground v.1.15,2013-08-04 00:50:00,
2013-08-03 17:55:00,73.0,61.8,30.03,WNW,284,4.0,5.0,68,0.00,,,0.00,Wunderground v.1.15,2013-08-04 00:55:00,
2013-08-03 17:59:00,72.2,61.5,30.03,West,275,5.0,6.0,69,0.00,,,0.00,Wunderground v.1.15,2013-08-04 00:59:00,
2013-08-03 18:05:00,71.7,62.2,30.03,WNW,283,5.0,6.0,72,0.00,,,0.00,Wunderground v.1.15,2013-08-04 01:05:00,
2013-08-03 18:09:00,71.3,62.6,30.02,West,280,5.0,6.0,74,0.00,,,0.00,Wunderground v.1.15,2013-08-04 01:09:00,
2013-08-03 18:15:00,71.0,62.3,30.02,West,278,6.0,7.0,74,0.00,,,0.00,Wunderground v.1.15,2013-08-04 01:15:00,
2013-08-03 18:20:00,71.3,62.6,30.02,West,278,6.0,6.0,74,0.00,,,0.00,Wunderground v.1.15,2013-08-04 01:20:00,
2013-08-03 18:25:00,71.5,62.0,30.02,NW,319,5.0,6.0,72,0.00,,,0.00,Wunderground v.1.15,2013-08-04 01:25:00,
2013-08-03 18:30:00,71.5,62.8,30.02,West,279,5.0,6.0,74,0.00,,,0.00,Wunderground v.1.15,2013-08-04 01:30:00,
2013-08-03 18:40:00,70.9,61.8,30.02,West,268,7.0,8.0,73,0.00,,,0.00,Wunderground v.1.15,2013-08-04 01:40:00,
2013-08-03 18:45:00,70.9,62.2,30.02,West,274,7.0,10.0,74,0.00,,,0.00,Wunderground v.1.15,2013-08-04 01:45:00,
2013-08-03 18:50:00,70.5,62.6,30.02,West,277,8.0,9.0,76,0.00,,,0.00,Wunderground v.1.15,2013-08-04 01:50:00,
2013-08-03 18:55:00,70.3,61.6,30.02,West,274,9.0,9.0,74,0.00,,,0.00,Wunderground v.1.15,2013-08-04 01:55:00,
2013-08-03 19:00:00,70.3,62.0,30.02,WNW,283,9.0,9.0,75,0.00,,,0.00,Wunderground v.1.15,2013-08-04 02:00:00,
2013-08-03 19:05:00,70.1,61.8,30.02,West,273,8.0,9.0,75,0.00,,,0.00,Wunderground v.1.15,2013-08-04 02:05:00,
2013-08-03 19:10:00,70.0,61.7,30.02,WSW,246,8.0,8.0,75,0.00,,,0.00,Wunderground v.1.15,2013-08-04 02:10:00,
2013-08-03 19:15:00,69.7,61.4,30.01,West,265,7.0,9.0,75,0.00,,,0.00,Wunderground v.1.15,2013-08-04 02:15:00,
2013-08-03 19:20:00,69.6,61.3,30.01,West,275,7.0,9.0,75,0.00,,,0.00,Wunderground v.1.15,2013-08-04 02:20:00,
2013-08-03 19:25:00,69.4,60.8,30.01,West,262,7.0,9.0,74,0.00,,,0.00,Wunderground v.1.15,2013-08-04 02:25:00,
2013-08-03 19:30:00,69.2,60.9,30.02,WSW,255,8.0,12.0,75,0.00,,,0.00,Wunderground v.1.15,2013-08-04 02:30:00,
2013-08-03 19:35:00,69.1,60.8,30.01,WNW,282,9.0,12.0,75,0.00,,,0.00,Wunderground v.1.15,2013-08-04 02:35:00,
2013-08-03 19:40:00,68.8,60.9,30.02,WSW,254,8.0,8.0,76,0.00,,,0.00,Wunderground v.1.15,2013-08-04 02:40:00,
2013-08-03 19:45:00,68.6,60.7,30.02,West,271,8.0,8.0,76,0.00,,,0.00,Wunderground v.1.15,2013-08-04 02:45:00,
2013-08-03 19:50:00,68.4,60.9,30.02,WSW,257,8.0,8.0,77,0.00,,,0.00,Wunderground v.1.15,2013-08-04 02:50:00,
2013-08-03 19:55:00,68.3,60.8,30.02,WSW,257,8.0,8.0,77,0.00,,,0.00,Wunderground v.1.15,2013-08-04 02:55:00,
2013-08-03 20:00:00,68.1,60.6,30.02,West,271,8.0,9.0,77,0.00,,,0.00,Wunderground v.1.15,2013-08-04 03:00:00,
2013-08-03 20:05:00,67.7,60.2,30.02,West,259,9.0,11.0,77,0.00,,,0.00,Wunderground v.1.15,2013-08-04 03:05:00,
2013-08-03 20:15:00,67.3,60.2,30.02,West,265,8.0,9.0,78,0.00,,,0.00,Wunderground v.1.15,2013-08-04 03:15:00,
2013-08-03 20:20:00,67.2,60.5,30.02,WSW,244,7.0,8.0,79,0.00,,,0.00,Wunderground v.1.15,2013-08-04 03:20:00,
2013-08-03 20:25:00,67.0,60.3,30.02,WSW,252,7.0,9.0,79,0.00,,,0.00,Wunderground v.1.15,2013-08-04 03:25:00,
2013-08-03 20:30:00,66.9,60.2,30.02,WSW,238,7.0,7.0,79,0.00,,,0.00,Wunderground v.1.15,2013-08-04 03:30:00,
2013-08-03 20:35:00,66.8,60.4,30.02,West,267,7.0,8.0,80,0.00,,,0.00,Wunderground v.1.15,2013-08-04 03:35:00,
2013-08-03 20:40:00,66.8,60.4,30.02,West,267,7.0,7.0,80,0.00,,,0.00,Wunderground v.1.15,2013-08-04 03:40:00,
2013-08-03 20:45:00,66.6,60.2,30.02,West,278,7.0,7.0,80,0.00,,,0.00,Wunderground v.1.15,2013-08-04 03:45:00,
2013-08-03 20:55:00,66.5,60.1,30.03,WSW,249,7.0,8.0,80,0.00,,,0.00,Wunderground v.1.15,2013-08-04 03:55:00,
2013-08-03 21:00:00,66.5,59.8,30.02,WSW,250,7.0,7.0,79,0.00,,,0.00,Wunderground v.1.15,2013-08-04 04:00:00,
2013-08-03 21:05:00,66.4,60.0,30.03,West,265,6.0,7.0,80,0.00,,,0.00,Wunderground v.1.15,2013-08-04 04:05:00,
2013-08-03 21:15:00,65.8,59.5,30.03,NW,309,4.0,5.0,80,0.00,,,0.00,Wunderground v.1.15,2013-08-04 04:15:00,
2013-08-03 21:20:00,64.8,58.8,30.03,NNW,331,2.0,2.0,81,0.00,,,0.00,Wunderground v.1.15,2013-08-04 04:20:00,
2013-08-03 21:25:00,64.1,58.8,30.04,NW,315,2.0,2.0,83,0.00,,,0.00,Wunderground v.1.15,2013-08-04 04:25:00,
2013-08-03 21:30:00,63.9,59.0,30.04,NNW,342,2.0,2.0,84,0.00,,,0.00,Wunderground v.1.15,2013-08-04 04:30:00,
2013-08-03 21:35:00,64.0,59.1,30.04,NNW,338,2.0,2.0,84,0.00,,,0.00,Wunderground v.1.15,2013-08-04 04:35:00,
2013-08-03 21:39:00,64.0,59.1,30.04,NNW,343,2.0,3.0,84,0.00,,,0.00,Wunderground v.1.15,2013-08-04 04:39:00,
2013-08-03 21:45:00,63.9,59.0,30.04,NNW,348,2.0,3.0,84,0.00,,,0.00,Wunderground v.1.15,2013-08-04 04:45:00,
2013-08-03 21:50:00,63.7,58.8,30.04,NNW,330,2.0,3.0,84,0.00,,,0.00,Wunderground v.1.15,2013-08-04 04:50:00,
2013-08-03 21:55:00,63.4,58.5,30.04,NW,323,2.0,3.0,84,0.00,,,0.00,Wunderground v.1.15,2013-08-04 04:55:00,
2013-08-03 22:00:00,62.9,58.0,30.04,NNW,327,2.0,2.0,84,0.00,,,0.00,Wunderground v.1.15,2013-08-04 05:00:00,
2013-08-03 22:05:00,62.7,58.5,30.04,NNW,344,2.0,2.0,86,0.00,,,0.00,Wunderground v.1.15,2013-08-04 05:05:00,
2013-08-03 22:10:00,62.7,58.5,30.04,NNW,342,2.0,2.0,86,0.00,,,0.00,Wunderground v.1.15,2013-08-04 05:10:00,
2013-08-03 22:15:00,62.4,58.2,30.04,NNW,348,1.0,2.0,86,0.00,,,0.00,Wunderground v.1.15,2013-08-04 05:15:00,
2013-08-03 22:20:00,62.1,57.9,30.04,NNW,348,1.0,1.0,86,0.00,,,0.00,Wunderground v.1.15,2013-08-04 05:20:00,
2013-08-03 22:25:00,61.8,57.9,30.04,North,349,1.0,3.0,87,0.00,,,0.00,Wunderground v.1.15,2013-08-04 05:25:00,
2013-08-03 22:30:00,61.6,57.7,30.04,NNW,347,2.0,2.0,87,0.00,,,0.00,Wunderground v.1.15,2013-08-04 05:30:00,
2013-08-03 22:35:00,61.4,57.5,30.04,NNW,347,2.0,2.0,87,0.00,,,0.00,Wunderground v.1.15,2013-08-04 05:35:00,
2013-08-03 22:40:00,61.1,57.5,30.04,NNW,347,1.0,2.0,88,0.00,,,0.00,Wunderground v.1.15,2013-08-04 05:40:00,
2013-08-03 22:45:00,60.8,57.2,30.04,NNW,347,1.0,2.0,88,0.00,,,0.00,Wunderground v.1.15,2013-08-04 05:45:00,
2013-08-03 22:49:00,60.6,57.0,30.04,NNW,347,1.0,1.0,88,0.00,,,0.00,Wunderground v.1.15,2013-08-04 05:49:00,
2013-08-03 22:55:00,60.4,57.1,30.04,NNW,347,0.0,1.0,89,0.00,,,0.00,Wunderground v.1.15,2013-08-04 05:55:00,
2013-08-03 22:59:00,60.3,57.0,30.04,NNW,347,0.0,1.0,89,0.00,,,0.00,Wunderground v.1.15,2013-08-04 05:59:00,
2013-08-03 23:05:00,60.1,57.2,30.04,NNW,347,0.0,1.0,90,0.00,,,0.00,Wunderground v.1.15,2013-08-04 06:05:00,
2013-08-03 23:10:00,59.8,56.9,30.04,NNW,347,0.0,0.0,90,0.00,,,0.00,Wunderground v.1.15,2013-08-04 06:10:00,
2013-08-03 23:15:00,59.6,56.7,30.04,NNW,347,1.0,2.0,90,0.00,,,0.00,Wunderground v.1.15,2013-08-04 06:15:00,
2013-08-03 23:19:00,59.3,56.4,30.04,NNW,347,1.0,2.0,90,0.00,,,0.00,Wunderground v.1.15,2013-08-04 06:19:00,
2013-08-03 23:25:00,59.2,56.6,30.04,NNW,336,1.0,2.0,91,0.00,,,0.00,Wunderground v.1.15,2013-08-04 06:25:00,
2013-08-03 23:29:00,59.3,56.7,30.04,NNW,327,2.0,2.0,91,0.00,,,0.00,Wunderground v.1.15,2013-08-04 06:29:00,
2013-08-03 23:35:00,59.1,56.5,30.04,NNW,334,1.0,2.0,91,0.00,,,0.00,Wunderground v.1.15,2013-08-04 06:35:00,
2013-08-03 23:40:00,58.9,56.3,30.03,NNW,341,1.0,2.0,91,0.00,,,0.00,Wunderground v.1.15,2013-08-04 06:40:00,
2013-08-03 23:45:00,58.8,56.5,30.04,NNW,341,1.0,2.0,92,0.00,,,0.00,Wunderground v.1.15,2013-08-04 06:45:00,
2013-08-03 23:49:00,58.7,56.1,30.03,NNW,341,0.0,0.0,91,0.00,,,0.00,Wunderground v.1.15,2013-08-04 06:49:00,
2013-08-03 23:55:00,58.6,56.3,30.03,NW,321,1.0,2.0,92,0.00,,,0.00,Wunderground v.1.15,2013-08-04 06:55:00,
2013-08-03 23:59:00,58.4,56.1,30.03,North,355,1.0,1.0,92,0.00,,,0.00,Wunderground v.1.15,2013-08-04 06:59:00,